Location: Joplin, MO
(37.0842°N, 94.5133°W)
Time: 16:49:42
(UTC+02:00)

Explorer 11/Cluster Stage 4 - All Passes

Search period start: 30 March 2023 00:00
Search period end: 09 April 2023 00:00
Orbit: 466 x 1241 km, 28.8° (Epoch: 29 March)

Date Brightness Start Highest point End Pass type
(mag) Time Alt. Az. Time Alt. Az. Time Alt. Az.
30 Mar - 12:22:35 10° S 12:23:49 11° SSE 12:25:05 10° SE visible
30 Mar - 14:08:01 10° SW 14:11:11 24° S 14:14:45 10° ESE daylight
30 Mar - 15:55:12 10° WSW 15:58:50 26° S 16:03:07 10° SE daylight
30 Mar - 17:43:29 10° SW 17:46:40 17° SSW 17:50:16 10° SSE daylight
31 Mar - 12:08:33 10° S 12:10:08 12° SSE 12:11:45 10° SE visible
31 Mar - 13:54:27 10° SW 13:57:32 24° S 14:00:56 10° ESE daylight
31 Mar - 15:41:47 10° WSW 15:45:09 24° S 15:49:03 10° SE daylight
31 Mar - 17:30:25 10° SW 17:32:56 14° SSW 17:35:41 10° SSE daylight
01 Apr - 11:54:35 10° SSW 11:56:28 14° SSE 11:58:22 10° SE visible
01 Apr - 13:40:54 10° SW 13:43:53 23° S 13:47:09 10° ESE daylight
01 Apr - 15:28:23 10° WSW 15:31:29 21° S 15:34:59 10° SE daylight
01 Apr - 17:17:44 10° SW 17:19:12 11° SSW 17:20:44 10° S daylight
02 Apr - 11:40:39 10° SSW 11:42:48 15° SSE 11:44:56 10° SE visible
02 Apr - 13:27:19 10° SW 13:30:15 23° S 13:33:22 10° SE visible
02 Apr - 15:15:00 10° SW 15:17:48 19° S 15:20:55 10° SE daylight
03 Apr - 11:26:43 10° SSW 11:29:08 16° SSE 11:31:30 10° SE visible
03 Apr - 13:13:43 10° SW 13:16:36 22° S 13:19:37 10° SE visible
03 Apr - 15:01:39 10° SW 15:04:08 17° SSW 15:06:49 10° SSE daylight
04 Apr - 11:12:48 10° SW 11:15:29 18° S 11:18:02 10° SE visible
04 Apr - 13:00:06 10° SW 13:02:58 22° S 13:05:51 10° SE visible
04 Apr - 14:48:22 10° SW 14:50:27 14° SSW 14:52:39 10° SSE daylight
05 Apr - 09:13:40 10° S 09:14:15 10° SSE 09:14:48 10° SSE night (unlit)
05 Apr - 10:58:52 10° SW 11:01:48 20° S 11:04:33 10° SE visible
05 Apr - 12:46:27 10° SW 12:49:18 21° S 12:52:08 10° SE visible
05 Apr - 14:35:10 10° SW 14:36:46 12° SSW 14:38:25 10° S daylight
06 Apr - 08:58:31 10° S 09:00:31 13° SSE 09:02:24 10° SE night (unlit)
06 Apr - 10:44:56 10° SW 10:48:08 22° S 10:51:04 10° ESE night (unlit)
06 Apr - 12:32:47 10° WSW 12:35:38 21° S 12:38:25 10° SE visible
06 Apr - 14:22:13 10° SSW 14:23:03 11° SSW 14:23:54 10° S daylight
07 Apr - 08:43:57 10° SSW 08:46:47 15° SSE 08:49:20 10° SE night (unlit)
07 Apr - 10:30:58 10° SW 10:34:27 24° S 10:37:34 10° ESE night (unlit)
07 Apr - 12:19:04 10° WSW 12:21:58 20° S 12:24:43 10° SE visible
08 Apr - 08:29:32 10° SSW 08:33:02 18° SSE 08:36:06 10° ESE night (unlit)
08 Apr - 10:16:59 10° SW 10:20:45 25° S 10:24:02 10° ESE night (unlit)
08 Apr - 12:05:20 10° WSW 12:08:16 20° SSW 12:11:01 10° SE visible
